Meteo pe oră la Bolshie Elbuzdovskie

Astăzi, 6 Mai, Joi

Timp Temperatura Precipitaţii Vânt Presiune Umiditate
00:00 +10°C° 0 mm 3 m/s 759 mmHg 60%
01:00 +10°C° 0 mm 3 m/s 759 mmHg 62%
02:00 +9°C° 0 mm 3 m/s 759 mmHg 63%
03:00 +9°C° 0 mm 3 m/s 759 mmHg 65%
04:00 +9°C° 0 mm 3 m/s 758 mmHg 67%
05:00 +9°C° 0 mm 3 m/s 758 mmHg 69%
06:00 +8°C° 0 mm 4 m/s 758 mmHg 71%
07:00 +10°C° 0 mm 5 m/s 758 mmHg 65%
08:00 +13°C° 0 mm 6 m/s 758 mmHg 60%
09:00 +15°C° 0 mm 6 m/s 758 mmHg 54%
10:00 +16°C° 0 mm 6 m/s 758 mmHg 52%
11:00 +17°C° 0 mm 6 m/s 757 mmHg 50%
12:00 +20°C° 0 mm 6 m/s 757 mmHg 49%
13:00 +20°C° 0 mm 6 m/s 757 mmHg 49%
14:00 +20°C° 0 mm 5 m/s 757 mmHg 49%
15:00 +21°C° 0 mm 4 m/s 757 mmHg 49%
16:00 +20°C° 0 mm 4 m/s 757 mmHg 55%
17:00 +19°C° 0 mm 3 m/s 756 mmHg 60%
18:00 +19°C° 0 mm 2 m/s 756 mmHg 66%
19:00 +18°C° 0 mm 2 m/s 757 mmHg 68%
20:00 +17°C° 0 mm 3 m/s 757 mmHg 70%
21:00 +16°C° 0 mm 3 m/s 757 mmHg 72%
22:00 +14°C° 0 mm 3 m/s 757 mmHg 72%
23:00 +14°C° 0 mm 3 m/s 757 mmHg 73%

Mâine, 7 Mai, Vineri

Timp Temperatura Precipitaţii Vânt Presiune Umiditate
00:00 +13°C° 0 mm 3 m/s 757 mmHg 74%
01:00 +14°C° 0 mm 2 m/s 757 mmHg 75%
02:00 +14°C° 0 mm 2 m/s 757 mmHg 76%
03:00 +13°C° 0 mm 2 m/s 758 mmHg 77%
04:00 +13°C° 0 mm 2 m/s 758 mmHg 79%
05:00 +13°C° 0 mm 2 m/s 758 mmHg 81%
06:00 +13°C° 0 mm 2 m/s 758 mmHg 83%
07:00 +15°C° 0 mm 2 m/s 759 mmHg 78%
08:00 +16°C° 0 mm 2 m/s 759 mmHg 73%
09:00 +18°C° 0 mm 2 m/s 759 mmHg 68%
10:00 +19°C° 0 mm 2 m/s 759 mmHg 63%
11:00 +21°C° 0 mm 2 m/s 759 mmHg 59%
12:00 +23°C° 0 mm 2 m/s 759 mmHg 55%
13:00 +23°C° 0 mm 2 m/s 759 mmHg 52%
14:00 +24°C° 0 mm 2 m/s 759 mmHg 49%
15:00 +24°C° 0 mm 2 m/s 759 mmHg 45%
16:00 +24°C° 0 mm 2 m/s 759 mmHg 50%
17:00 +23°C° 0 mm 2 m/s 759 mmHg 54%
18:00 +23°C° 0 mm 2 m/s 759 mmHg 58%
19:00 +20°C° 0 mm 2 m/s 759 mmHg 62%
20:00 +19°C° 0 mm 1 m/s 759 mmHg 65%
21:00 +18°C° 0 mm 1 m/s 760 mmHg 69%
22:00 +16°C° 0 mm 1 m/s 760 mmHg 71%
23:00 +16°C° 0 mm 1 m/s 760 mmHg 72%

Poimâine, 8 Mai, Sâmbătă

Timp Temperatura Precipitaţii Vânt Presiune Umiditate
00:00 +15°C° 0 mm 1 m/s 759 mmHg 74%
01:00 +15°C° 0 mm 1 m/s 759 mmHg 76%
02:00 +14°C° 0 mm 1 m/s 759 mmHg 77%
03:00 +14°C° 0 mm 1 m/s 759 mmHg 79%
04:00 +14°C° 0 mm 1 m/s 760 mmHg 79%
05:00 +14°C° 0 mm 1 m/s 760 mmHg 79%
06:00 +14°C° 0 mm 0 m/s 760 mmHg 79%
07:00 +16°C° 0 mm 1 m/s 760 mmHg 73%
08:00 +19°C° 0 mm 1 m/s 760 mmHg 68%
09:00 +21°C° 0 mm 1 m/s 760 mmHg 63%
10:00 +22°C° 0 mm 1 m/s 760 mmHg 60%
11:00 +23°C° 0 mm 1 m/s 760 mmHg 57%
12:00 +23°C° 0 mm 2 m/s 760 mmHg 55%
13:00 +24°C° 0 mm 1 m/s 760 mmHg 54%
14:00 +24°C° 0 mm 1 m/s 760 mmHg 53%
15:00 +25°C° 0 mm 1 m/s 760 mmHg 52%
16:00 +24°C° 0 mm 1 m/s 760 mmHg 55%
17:00 +24°C° 0 mm 1 m/s 760 mmHg 58%
18:00 +24°C° 0 mm 1 m/s 760 mmHg 62%
19:00 +22°C° 0 mm 1 m/s 760 mmHg 65%
20:00 +21°C° 0 mm 1 m/s 760 mmHg 68%
21:00 +18°C° 0 mm 2 m/s 760 mmHg 71%
22:00 +17°C° 0 mm 2 m/s 760 mmHg 73%
23:00 +17°C° 0 mm 2 m/s 760 mmHg 75%

9 Mai, Duminică

Timp Temperatura Precipitaţii Vânt Presiune Umiditate
00:00 +16°C° 0 mm 2 m/s 760 mmHg 77%
01:00 +16°C° 0 mm 2 m/s 761 mmHg 79%
02:00 +16°C° 0 mm 2 m/s 761 mmHg 80%
03:00 +15°C° 0 mm 2 m/s 761 mmHg 82%

10 Mai, Luni

Timp Temperatura Precipitaţii Vânt Presiune Umiditate

11 Mai, Marţi

Timp Temperatura Precipitaţii Vânt Presiune Umiditate
Arată mai mult

Formular de consimțământ

Meteoprog și furnizorii noștri de servicii pot stoca și accesa date personale, precum cookies, identificatori de dispozitiv sau alte tehnologii similare pe dispozitivul dumneavoastră și procesa astfel de date pentru a personaliza conținutul și reclamele, dar și pentru a oferi caracteristici de social media și pentru a analiza traficul.

  • Stocarea și/sau accesarea informațiilor pe dispozitivul dumneavoastră

    Cookies, identificatori de dispozitiv sau alte informații pot fi stocate sau accesate pe dispozitiv în scopurile indicate mai sus.

  • Reclame și conținut personalizat, evaluarea reclamelor și a conținutului, informații despre audiențe și dezvoltarea produselor

    Reclamele și conținutul pot fi personalizate pe baza unui profil. Pot fi adăugate date suplimentare pentru a personaliza mai bine reclamele și conținutul. Performanța reclamelor și conținutului poate fi măsurată. Pot fi obținute informații despre utilizatorii care au văzut reclamele și conținutul. Aceste date pot fi utilizate pentru a dezvolta sau îmbunătăți experiența utilizatorilor, sistemele și software-ul.

Dând clic pe ‘Sunt de acord’, permiteți utilizarea cookie-urilor menționate, a identificatorilor de dispozitiv, balizelor web sau altor tehnologii similare. Setările pot fi modificate din browser-ul dispozitivului dumneavoastră.

În anumite scopuri, interesele legitime pot prima asupra consimțământului. Puteți citi mai multe informații în acest sens în Politica privind Confidențialitatea Datelor și Cookie.